| time (UTC) | temp F | wind direction | speed MPH | gust MPH | rain 1hr in | rain 24hr in | rain mn in | humidity % | barometer mb |
| 20260508140048 | 66 | 267 | 0.0 | 2.0 | 0.00 | 0.30 | 0.00 | 88 | 1015.1 |
| 20260508134559 | 66 | 95 | 0.0 | 3.0 | 0.00 | 0.30 | 0.00 | 88 | 1015.2 |
| 20260508133048 | 66 | 15 | 1.0 | 5.0 | 0.00 | 0.30 | 0.00 | 87 | 1015.1 |
| 20260508131547 | 66 | 203 | 1.0 | 5.0 | 0.00 | 0.30 | 0.00 | 88 | 1015.0 |
| 20260508130046 | 65 | 41 | 1.0 | 5.0 | 0.00 | 0.30 | 0.00 | 89 | 1015.4 |
| 20260508124555 | 65 | 115 | 0.0 | 5.0 | 0.00 | 0.30 | 0.00 | 91 | 1015.3 |
| 20260508123049 | 65 | 120 | 0.0 | 2.0 | 0.00 | 0.30 | 0.00 | 90 | 1015.6 |
| 20260508121543 | 65 | 319 | 0.0 | 1.0 | 0.00 | 0.30 | 0.00 | 90 | 1015.8 |
| 20260508120042 | 66 | 217 | 0.0 | 1.0 | 0.00 | 0.30 | 0.00 | 88 | 1015.8 |
| 20260508114540 | 66 | 281 | 0.0 | 1.0 | 0.00 | 0.30 | 0.00 | 88 | 1015.7 |
| 20260508113048 | 66 | 163 | 0.0 | 3.0 | 0.00 | 0.30 | 0.00 | 87 | 1015.0 |
| 20260508111532 | 65 | 336 | 0.0 | 3.0 | 0.00 | 0.30 | 0.00 | 87 | 1014.1 |
| 20260508110029 | 65 | 99 | 0.0 | 3.0 | 0.00 | 0.30 | 0.00 | 87 | 1014.0 |
| 20260508104527 | 65 | 91 | 0.0 | 2.0 | 0.00 | 0.30 | 0.00 | 88 | 1014.2 |
| 20260508103033 | 65 | 72 | 0.0 | 1.0 | 0.00 | 0.30 | 0.00 | 88 | 1014.1 |
| 20260508101530 | 65 | 26 | 0.0 | 2.0 | 0.00 | 0.30 | 0.00 | 88 | 1013.9 |
| 20260508100027 | 65 | 75 | 0.0 | 2.0 | 0.00 | 0.30 | 0.00 | 88 | 1013.9 |
| 20260508094525 | 66 | 123 | 0.0 | 1.0 | 0.00 | 0.30 | 0.00 | 89 | 1014.0 |
| 20260508093025 | 65 | 295 | 0.0 | 2.0 | 0.00 | 0.30 | 0.00 | 88 | 1013.9 |
| 20260508091534 | 66 | 32 | 0.0 | 1.0 | 0.00 | 0.30 | 0.00 | 89 | 1013.9 |
| 20260508090035 | 66 | 248 | 0.0 | 1.0 | 0.00 | 0.30 | 0.00 | 89 | 1013.9 |
| 20260508084522 | 66 | 295 | 0.0 | 1.0 | 0.00 | 0.30 | 0.00 | 89 | 1013.6 |
| 20260508083022 | 66 | 127 | 0.0 | 1.0 | 0.00 | 0.30 | 0.00 | 90 | 1013.5 |
| 20260508081521 | 66 | 30 | 0.0 | 3.0 | 0.00 | 0.30 | 0.00 | 89 | 1013.5 |
| 20260508080030 | 66 | 182 | 0.0 | 0.0 | 0.00 | 0.30 | 0.00 | 90 | 1013.5 |
| 20260508074527 | 66 | 226 | 0.0 | 0.0 | 0.00 | 0.30 | 0.00 | 91 | 1013.6 |
| 20260508073022 | 66 | 103 | 0.0 | 3.0 | 0.00 | 0.30 | 0.00 | 92 | 1013.8 |
| 20260508071524 | 66 | 314 | 0.0 | 3.0 | 0.00 | 0.30 | 0.00 | 92 | 1013.7 |
| 20260508070017 | 66 | 144 | 0.0 | 2.0 | 0.00 | 0.30 | 0.00 | 92 | 1013.8 |
| 20260508064519 | 66 | 75 | 0.0 | 1.0 | 0.00 | 0.30 | 0.00 | 92 | 1014.0 |
| 20260508063013 | 66 | 103 | 0.0 | 1.0 | 0.00 | 0.30 | 0.00 | 92 | 1014.0 |
| 20260508061511 | 67 | 141 | 0.0 | 2.0 | 0.00 | 0.30 | 0.00 | 92 | 1014.1 |
| 20260508060011 | 67 | 198 | 0.0 | 2.0 | 0.00 | 0.30 | 0.00 | 91 | 1014.2 |
| 20260508054510 | 67 | 112 | 0.0 | 2.0 | 0.00 | 0.30 | 0.00 | 92 | 1014.4 |
| 20260508053007 | 67 | 127 | 0.0 | 3.0 | 0.00 | 0.30 | 0.00 | 92 | 1014.3 |
| 20260508051505 | 68 | 157 | 0.0 | 0.0 | 0.00 | 0.30 | 0.00 | 91 | 1014.4 |
| 20260508050002 | 68 | 105 | 0.0 | 1.0 | 0.00 | 0.30 | 0.00 | 91 | 1014.8 |
| 20260508044610 | 68 | 155 | 0.0 | 2.0 | 0.00 | 0.30 | 0.30 | 91 | 1014.5 |
| 20260508043109 | 68 | 222 | 0.0 | 2.0 | 0.00 | 0.30 | 0.30 | 91 | 1014.7 |
| 20260508041559 | 68 | 113 | 0.0 | 1.0 | 0.00 | 0.30 | 0.30 | 91 | 1014.8 |
| 20260508040057 | 68 | 158 | 0.0 | 5.0 | 0.00 | 0.30 | 0.30 | 91 | 1014.8 |
| 20260508034555 | 69 | 201 | 0.0 | 3.0 | 0.00 | 0.30 | 0.30 | 91 | 1014.7 |
| 20260508033053 | 69 | 117 | 0.0 | 3.0 | 0.00 | 0.30 | 0.30 | 91 | 1014.4 |
| 20260508031550 | 70 | 158 | 0.0 | 4.0 | 0.00 | 0.30 | 0.30 | 91 | 1014.4 |
| 20260508030049 | 70 | 11 | 0.0 | 2.0 | 0.00 | 0.30 | 0.30 | 91 | 1014.4 |
| 20260508024548 | 70 | 211 | 0.0 | 3.0 | 0.00 | 0.30 | 0.30 | 91 | 1014.7 |
| 20260508023047 | 70 | 231 | 0.0 | 3.0 | 0.00 | 0.30 | 0.30 | 91 | 1014.8 |
| 20260508021548 | 71 | 199 | 0.0 | 3.0 | 0.00 | 0.30 | 0.30 | 92 | 1014.6 |
| 20260508020042 | 71 | 279 | 0.0 | 3.0 | 0.00 | 0.30 | 0.30 | 93 | 1014.3 |
| 20260508014542 | 71 | 250 | 0.0 | 0.0 | 0.00 | 0.30 | 0.30 | 93 | 1014.1 |
| 20260508013042 | 71 | 250 | 0.0 | 0.0 | 0.00 | 0.30 | 0.30 | 92 | 1013.9 |
| 20260508011542 | 72 | 250 | 0.0 | 0.0 | 0.00 | 0.30 | 0.30 | 91 | 1013.6 |
| 20260508010040 | 72 | 250 | 0.0 | 0.0 | 0.00 | 0.30 | 0.30 | 90 | 1013.4 |
| 20260508004541 | 73 | 250 | 0.0 | 0.0 | 0.00 | 0.30 | 0.30 | 89 | 1013.3 |
| 20260508003039 | 73 | 257 | 0.0 | 0.0 | 0.00 | 0.30 | 0.30 | 88 | 1013.1 |
| 20260508001539 | 74 | 207 | 0.0 | 1.0 | 0.00 | 0.30 | 0.30 | 87 | 1013.1 |
| 20260508000038 | 75 | 127 | 0.0 | 5.0 | 0.00 | 0.30 | 0.30 | 85 | 1013.0 |
| 20260507234538 | 75 | 179 | 0.0 | 3.0 | 0.00 | 0.30 | 0.30 | 86 | 1013.3 |
| 20260507233039 | 75 | 311 | 0.0 | 3.0 | 0.00 | 0.30 | 0.30 | 85 | 1013.1 |
| 20260507231540 | 76 | 301 | 0.0 | 5.0 | 0.00 | 0.30 | 0.30 | 84 | 1013.2 |
| 20260507230037 | 76 | 223 | 0.0 | 3.0 | 0.00 | 0.30 | 0.30 | 84 | 1013.1 |
| 20260507224537 | 77 | 255 | 0.0 | 3.0 | 0.00 | 0.30 | 0.30 | 83 | 1012.8 |
| 20260507223036 | 77 | 347 | 0.0 | 3.0 | 0.00 | 0.30 | 0.30 | 83 | 1012.8 |
| 20260507221535 | 77 | 111 | 0.0 | 3.0 | 0.00 | 0.30 | 0.30 | 83 | 1012.7 |
| 20260507220036 | 78 | 101 | 1.0 | 5.0 | 0.00 | 0.30 | 0.30 | 83 | 1012.8 |
| 20260507214541 | 78 | 202 | 0.0 | 2.0 | 0.00 | 0.30 | 0.30 | 83 | 1012.7 |
| 20260507213033 | 79 | 324 | 0.0 | 4.0 | 0.00 | 0.30 | 0.30 | 83 | 1012.8 |
| 20260507211532 | 78 | 309 | 0.0 | 2.0 | 0.00 | 0.30 | 0.30 | 83 | 1012.8 |
| 20260507210047 | 78 | 349 | 0.0 | 3.0 | 0.00 | 0.30 | 0.30 | 84 | 1012.6 |
| 20260507204532 | 79 | 143 | 0.0 | 1.0 | 0.00 | 0.30 | 0.30 | 82 | 1012.7 |
| 20260507203035 | 79 | 141 | 0.0 | 3.0 | 0.00 | 0.30 | 0.30 | 82 | 1012.8 |
| 20260507201528 | 79 | 85 | 0.0 | 3.0 | 0.00 | 0.30 | 0.30 | 84 | 1012.8 |
| 20260507200035 | 78 | 345 | 0.0 | 2.0 | 0.00 | 0.30 | 0.30 | 84 | 1012.8 |
| 20260507194538 | 78 | 74 | 1.0 | 4.0 | 0.00 | 0.30 | 0.30 | 86 | 1013.0 |
| 20260507193031 | 78 | 137 | 0.0 | 3.0 | 0.00 | 0.30 | 0.30 | 88 | 1013.0 |
| 20260507191523 | 75 | 122 | 0.0 | 2.0 | 0.00 | 0.30 | 0.30 | 89 | 1013.1 |
| 20260507190024 | 74 | 172 | 0.0 | 2.0 | 0.00 | 0.30 | 0.30 | 92 | 1013.2 |
| 20260507184522 | 74 | 53 | 0.0 | 3.0 | 0.00 | 0.30 | 0.30 | 93 | 1013.3 |
| 20260507183028 | 72 | 248 | 0.0 | 2.0 | 0.00 | 0.30 | 0.30 | 95 | 1013.4 |
| 20260507181520 | 71 | 202 | 0.0 | 2.0 | 0.01 | 0.30 | 0.30 | 96 | 1013.6 |
| 20260507180024 | 71 | 262 | 0.0 | 3.0 | 0.01 | 0.30 | 0.30 | 96 | 1013.9 |
| 20260507174523 | 71 | 350 | 0.0 | 2.0 | 0.02 | 0.33 | 0.30 | 96 | 1014.1 |
| 20260507173021 | 71 | 288 | 0.0 | 4.0 | 0.02 | 0.33 | 0.30 | 95 | 1014.0 |
| 20260507171516 | 71 | 345 | 0.0 | 5.0 | 0.02 | 0.32 | 0.28 | 95 | 1014.2 |
| 20260507170016 | 72 | 288 | 0.0 | 2.0 | 0.02 | 0.32 | 0.28 | 96 | 1014.1 |
| 20260507164514 | 72 | 191 | 0.0 | 2.0 | 0.01 | 0.31 | 0.28 | 96 | 1014.1 |
| 20260507163014 | 73 | 354 | 0.0 | 0.0 | 0.01 | 0.31 | 0.28 | 96 | 1014.1 |
| 20260507161515 | 72 | 252 | 0.0 | 2.0 | 0.00 | 0.30 | 0.27 | 96 | 1014.1 |
| 20260507160020 | 72 | 289 | 0.0 | 1.0 | 0.00 | 0.30 | 0.27 | 96 | 1014.2 |
| 20260507154521 | 72 | 273 | 0.0 | 2.0 | 0.00 | 0.30 | 0.27 | 97 | 1014.0 |
| 20260507153023 | 72 | 215 | 0.0 | 2.0 | 0.01 | 0.30 | 0.27 | 96 | 1014.0 |
| 20260507151509 | 72 | 231 | 0.0 | 3.0 | 0.19 | 0.30 | 0.27 | 96 | 1013.9 |
| 20260507150007 | 73 | 283 | 0.0 | 3.0 | 0.27 | 0.30 | 0.27 | 96 | 1013.9 |
| 20260507144506 | 73 | 209 | 0.0 | 1.0 | 0.27 | 0.30 | 0.27 | 96 | 1013.7 |
| 20260507143004 | 73 | 318 | 0.0 | 3.0 | 0.26 | 0.28 | 0.26 | 94 | 1013.2 |
| 20260507141557 | 75 | 68 | 0.0 | 2.0 | 0.09 | 0.12 | 0.09 | 92 | 1013.2 |